Regional Weather Roundup
Issued by NWS Huntsville, AL

Home | Current Version | Previous Version | Text Only | Print | Product List | Glossary On
Versions: 1 2 3 4 5 6 7 8 9 10 11 12 13 14 15 16 17 18 19 20 21 22 23 24 25 26 27 28 29 30 31 32 33 34 35 36 37 38 39 40 41 42 43 44 45 46 47 48 49 50
000
ASUS44 KHUN 282310
RWRHUN

WEATHER ROUNDUP FOR THE TENNESSEE VALLEY
NATIONAL WEATHER SERVICE HUNTSVILLE AL
600 PM CDT FRI AUG 28 2015

ALZ001>004-290000-
NORTHWEST ALABAMA

CITY           SKY/WX    TMP DP  RH WIND       PRES   REMARKS
COURTLAND HCN    N/A     84 N/A N/A E6          N/A
BANKHEAD NF      N/A     83  68  59 CALM        N/A
RUSSELLVILLE     N/A     84 N/A N/A MISG        N/A
SHOALS AIRPORT SUNNY     84  66  54 E6        30.04R
SHOALS TVA RES   N/A     84 N/A N/A MISG        N/A
$$

ALZ005>007-016-290000-
NORTH CENTRAL ALABAMA

CITY           SKY/WX    TMP DP  RH WIND       PRES   REMARKS
CULLMAN AG STN   N/A     84 N/A N/A E5          N/A
DECATUR AP     SUNNY     84  67  56 E6        30.05R
HUNTSVILLE AP  MOSUNNY   85  66  53 SE8       30.05R
HUN NWS/UAH      N/A     85  61  44 S6          N/A
MERIDIANVILLE  SUNNY     84  59  42 SE5       30.06R
REDSTONE ARSN  SUNNY     84  67  56 SE3       30.05R
VINEMONT AP    FAIR      82  66  57 CALM      30.08R
$$

ALZ008>010-290000-
NORTHEAST ALABAMA

CITY           SKY/WX    TMP DP  RH WIND       PRES   REMARKS
ALBERTVILLE    SUNNY     81  73  78 E5        30.07R
FORT PAYNE     SUNNY     81  61  50 E6        30.07S
SCOTTSBORO AP  SUNNY     82  68  61 SE3       30.07R
SCOTTSBORO HCN   N/A     81 N/A N/A MISG        N/A
VALLEY HEAD      N/A     81 N/A N/A MISG        N/A
$$

TNZ076-096-097-290000-
SOUTHEASTERN MIDDLE TENNESSEE

CITY           SKY/WX    TMP DP  RH WIND       PRES   REMARKS
TULLAHOMA      SUNNY     82  63  51 SE6       30.09S
WINCHESTER     SUNNY     82  68  61 SE6       30.08S
$$

...SURROUNDING SITES...

CITY           SKY/WX    TMP DP  RH WIND       PRES   REMARKS
ATLANTA        CLOUDY    80  65  59 SE7       30.11S
ANNISTON       SUNNY     84  68  58 E7        30.04S
BIRMINGHAM     MOSUNNY   85  69  58 VRB6      30.04S
CHATTANOOGA    MOSUNNY   84  65  52 SE7       30.08R
DALTON         SUNNY     82  64  54 SE6       30.09S
GADSDEN        MOSUNNY   84  64  51 SE7       30.04R
GOLDEN TRNGL   MOSUNNY   88  63  42 E10       29.98S
HALEYVILLE     FAIR      85  66  52 CALM      30.07S
JACKSON TN     SUNNY     85  65  51 S3        30.02S
MEMPHIS        MOSUNNY   87  63  44 S8        30.00S
NASHVILLE      MOSUNNY   87  57  35 S7        30.05S
OXFORD MS      FAIR      84  63  48 SE6       30.01F
ROME           SUNNY     83  66  56 SE7       30.07R
SAVANNAH       SUNNY     88  32  13 SE3       30.03S
TUPELO         SUNNY     87  63  44 SE5       30.00S
TUSCALOOSA     MOSUNNY   87  68  52 E5        29.98F HX  90
$$

...GULF COAST WEATHER...

CITY           SKY/WX    TMP DP  RH WIND       PRES   REMARKS
GULFPORT       SUNNY     85  66  53 SE10      29.96R
PASCAGOULA     SUNNY     84  67  56 S9        29.97S
MOBILE         MOSUNNY   85  66  53 S9        29.97S
GULF SHORES    CLEAR     84  68  58 S6        29.96S
PENSACOLA      MOSUNNY   85  68  56 S7        29.96R
DESTIN         PTSUNNY   87  71  58 S7        29.96S HX  93
PANAMA CITY    PTSUNNY   85  74  69 E5        29.97S HX  91
APPALACHICOLA  PTSUNNY   84  75  74 SE7       29.98S HX  92
$$



USA.gov is the U.S. government's official web portal to all federal, state and local government web resources and services.